CAPE
0 0 0 0 0 0 0 0 0 0 0 0 0 0 0 0 0 0 0 0 0 0 0 0 0 0 0 2 10 6 48 116 275 651 591 309 136 30 0 0 0 0 0 0
0 0 0 0 0 0 0 0 0 0 0 0 0 0 0 0 0 0 0 0 0 0 0 0 0 0 0 8 0 72 164 568 402 196 39 17 0 0 0 0 0 0 0 0
0 0 0 0 0 0 0 0 0 0 0 0 0 0 0 0 0 0 0 0 0 0 0 0 0 0 1 20 160 382 348 163 6 0 0 0 0 0 0 0 0 0 0 0
0 0 0 0 0 0 0 0 0 0 0 0 0 0 0 0 0 0 0 0 1 0 0 0 7 48 152 360 249 110 5 0 0 0 0 0 0 0 0 0 0 0 0 0
0 0 0 0 0 0 0 0 0 0 0 0 0 0 0 0 0 0 0 3 16 32 5 13 209 325 323 201 106 7 0 0 0 0 0 0 0 0 0 0 0 0 0 0
0 0 0 0 0 0 0 0 0 0 0 0 0 0 0 0 0 0 0 20 24 11 155 403 470 316 223 107 9 0 0 0 0 0 0 0 0 0 0 0 0 0 0 0
0 0 0 0 0 0 0 0 0 0 0 0 0 0 0 0 0 0 0 0 4 105 198 353 287 161 53 0 0 0 0 0 0 0 0 0 0 0 0 0 0 0 0 0
0 0 0 0 0 0 0 0 0 0 0 0 0 0 0 0 0 0 0 0 11 142 133 83 17 0 0 0 0 0 0 0 0 0 0 0 0 0 0 0 0 0 0 2
0 0 0 0 0 0 0 0 0 0 0 0 0 0 42 0 0 0 0 67 123 147 81 24 0 0 0 0 0 0 0 0 0 0 0 0 0 0 0 0 0 0 0 0
0 0 0 0 0 0 0 0 0 2 0 0 0 0 2 6 0 0 0 79 65 21 10 0 0 0 0 0 0 0 0 0 0 0 0 0 0 0 0 0 0 0 0 0
0 0 0 0 0 0 0 0 0 0 0 0 0 0 20 5 2 0 0 4 48 3 0 0 0 0 0 0 0 0 0 0 0 0 0 0 0 0 0 0 0 0 0 0
3 6 0 0 5 24 0 1 0 4 0 6 50 41 0 0 4 0 0 41 23 13 0 0 0 0 0 0 0 0 0 0 0 0 0 0 0 0 0 0 0 0 0 0
0 14 0 0 2 77 18 19 27 48 0 16 2 33 0 0 0 0 16 46 44 0 0 0 0 0 0 0 0 0 0 0 0 0 0 0 0 0 0 0 0 0 0 0
0 3 42 23 83 184 20 9 23 1 0 1 0 0 0 0 0 0 47 22 0 0 0 0 0 0 0 0 0 0 0 0 0 1 0 0 0 0 0 0 0 0 0 0
0 0 0 0 17 41 38 103 83 0 1 0 0 0 0 0 5 34 4 5 0 0 0 0 0 0 0 0 0 0 0 0 0 0 0 0 0 0 1 2 0 0 0 0
0 0 0 0 33 34 22 10 3 36 0 0 0 0 8 0 0 0 0 29 0 0 0 0 0 0 0 0 0 0 0 0 0 0 0 0 0 0 6 0 0 0 0 0
103 88 92 25 43 12 0 7 3 14 41 0 0 0 0 0 8 0 3 0 0 0 0 0 0 0 0 0 0 0 0 0 0 0 0 0 0 0 0 0 0 0 0 0
108 107 125 63 77 0 0 0 0 0 0 0 0 8 23 10 90 4 0 0 0 0 0 0 0 0 0 0 0 0 0 0 0 0 0 0 0 0 0 0 0 0 0 0
27 30 13 0 0 32 8 36 17 8 38 8 0 19 86 30 16 0 0 0 0 0 0 0 0 0 0 0 0 0 0 0 0 0 0 0 0 0 0 0 0 0 0 0
0 28 96 14 0 0 120 72 63 2 0 0 0 0 63 55 22 1 0 0 0 0 0 0 0 0 0 0 0 0 0 0 0 0 0 0 0 0 0 0 0 0 0 0
7 3 1 73 38 33 197 151 21 9 69 116 0 0 140 53 0 0 0 0 0 0 0 0 0 0 0 0 0 0 0 0 0 0 0 0 0 0 0 0 0 0 0 0
20 17 99 117 138 57 225 209 226 272 170 127 103 0 0 0 0 0 0 0 0 0 0 0 0 0 0 0 0 0 0 0 0 0 0 0 0 0 0 0 0 0 0 0
27 83 82 136 85 131 195 317 275 110 99 8 2 0 0 0 0 0 0 0 0 0 0 0 0 0 0 0 0 0 0 0 0 0 0 0 0 0 0 0 0 0 0 0
25 15 242 59 194 36 103 125 145 108 11 0 0 0 0 0 0 0 0 0 0 0 0 0 0 0 0 0 0 0 0 0 0 0 0 0 0 0 0 0 0 0 0 0
42 104 13 15 52 40 159 231 45 106 2 0 0 0 0 0 0 0 0 0 0 0 0 0 0 0 0 0 0 0 0 0 0 0 0 0 0 0 0 0 0 0 0 0
0 0 127 66 49 227 219 110 125 35 76 64 1 2 2 0 0 0 0 0 0 0 0 0 0 0 0 0 0 0 0 0 0 0 0 0 0 0 0 0 0 0 0 0
CIN
0 0 0 0 0 0 0 0 0 0 0 0 0 0 0 0 0 0 0 0 0 0 0 0 0 0 0 -140 -263 -281 -253 -170 -143 -128 -124 -120 -157 -190 0 0 0 0 0 0
0 0 0 0 0 0 0 0 0 0 0 0 0 0 0 0 0 0 0 0 0 0 0 0 0 0 0 -282 0 -263 -210 -219 -236 -236 -196 -212 0 0 0 0 0 0 0 0
0 0 0 0 0 0 0 0 0 0 0 0 0 0 0 0 0 0 0 0 0 0 0 0 0 0 -94 -253 -256 -211 -279 -380 -38 0 0 0 0 0 0 0 0 0 0 0
0 0 0 0 0 0 0 0 0 0 0 0 0 0 0 0 0 0 0 -4 -66 -10 0 0 -117 -186 -251 -256 -325 -430 -77 0 0 0 0 0 0 0 0 0 0 0 0 0
0 0 0 0 0 0 0 0 0 0 0 0 0 0 0 0 0 0 0 -52 -74 -66 -93 -98 -184 -299 -338 -362 -405 -487 0 0 0 0 0 0 0 0 0 0 0 0 0 0
0 0 0 0 0 0 0 0 0 0 0 0 0 0 0 0 0 0 0 -77 -51 -47 -134 -235 -393 -417 -403 -425 -383 0 0 0 0 0 0 0 0 0 0 0 0 0 0 0
0 0 0 0 0 0 0 0 0 0 0 0 0 0 0 0 0 0 -2 -47 -100 -186 -234 -331 -378 -387 -491 0 0 0 0 0 0 0 0 0 0 0 0 0 0 0 0 0
0 0 0 0 0 0 0 0 0 0 0 0 0 0 0 0 0 0 0 0 -214 -234 -328 -362 -205 0 0 0 0 0 0 0 0 0 0 0 0 0 0 0 0 -1 0 -3
0 0 0 0 0 0 0 0 0 0 0 0 0 0 -56 0 0 0 0 -131 -250 -333 -394 -515 0 0 0 0 0 0 0 0 0 0 0 0 0 0 0 0 0 -7 0 0
0 0 0 0 0 0 0 0 0 -3 0 0 0 0 -27 -67 0 0 0 -54 -188 -330 -483 0 0 0 0 0 0 0 0 0 0 0 0 0 0 0 0 0 0 0 0 0
0 0 0 0 0 0 0 0 0 0 0 0 0 0 -175 -128 -128 0 0 -31 -90 -207 -126 0 0 0 0 0 0 0 0 0 0 0 0 0 0 0 0 0 0 0 0 0
-56 -10 0 0 -36 -9 -4 -87 0 -39 0 -77 -31 -24 0 0 -115 0 -4 -100 -154 -259 -18 0 0 0 0 0 0 0 0 0 0 0 0 0 0 0 0 0 0 0 0 0
0 -18 0 0 -14 -41 -36 -60 -71 -84 0 -73 -43 -23 0 0 0 0 -55 -113 -152 0 0 0 0 0 0 0 0 0 0 0 0 -1 0 0 0 0 0 0 0 0 0 0
0 -42 -56 -52 -35 -32 -33 -21 -50 -19 0 -56 0 0 0 0 0 0 -53 -86 -55 0 0 0 0 0 0 0 0 0 0 0 0 -1 0 0 0 0 0 -4 0 0 0 0
0 0 0 -6 -78 -37 -51 -27 -28 0 -28 0 0 0 0 0 -113 -247 -16 -9 0 0 0 0 0 0 0 0 0 0 0 0 0 0 0 0 0 0 -25 -13 0 0 0 0
0 0 0 0 -144 -109 -78 -46 -20 -67 0 0 0 0 -135 0 0 0 -9 -8 0 0 0 0 0 0 0 0 0 0 0 0 0 0 0 0 0 -2 -10 0 0 0 0 0
-74 -121 -110 -186 -158 -143 0 -142 -23 -27 -43 0 0 0 0 0 -74 0 -3 0 0 0 0 0 0 0 0 0 0 0 0 0 0 0 0 0 0 0 0 0 0 0 0 0
-38 -86 -81 -135 -110 0 0 0 0 0 0 0 0 -78 -102 -97 -158 -103 -29 0 0 0 0 0 0 0 0 0 0 0 0 0 0 0 0 0 0 0 0 0 0 0 0 0
-102 -81 -127 0 0 -158 -169 -113 -127 -140 -91 -76 0 -70 -129 -135 -113 -11 0 0 0 0 0 0 0 0 0 0 0 0 0 0 0 0 0 0 0 0 0 0 0 0 0 0
0 -47 -14 -113 0 0 -52 -132 -163 -67 0 0 0 0 -95 -86 -38 -28 0 0 0 0 0 0 0 0 0 0 0 0 0 0 0 0 0 0 0 0 0 0 0 0 0 0
-10 -3 -4 -34 -104 -122 -37 -71 -208 -173 -139 -160 0 0 -68 -102 0 0 0 0 0 0 0 0 0 0 0 0 0 0 0 0 0 0 0 0 0 0 0 0 0 0 0 0
-31 -44 -11 -8 -24 -88 -70 -49 -21 -71 -138 -151 -134 0 -74 0 0 0 0 0 0 0 0 0 0 0 0 0 0 0 0 0 0 0 0 0 0 0 0 0 0 0 0 0
-12 -11 -40 -25 -14 -55 -41 -40 -52 -101 -103 -188 -19 -6 0 0 0 0 0 0 0 0 0 0 0 0 0 0 0 0 0 0 0 0 0 0 0 0 0 0 0 0 0 0
-65 -62 -6 -30 -32 -70 -55 -53 -52 -132 -176 0 0 0 0 0 0 0 0 0 0 0 0 0 0 0 0 0 0 0 0 0 0 0 0 0 0 0 0 0 0 0 0 0
-67 -69 -74 -81 -19 -11 -15 -12 -69 -68 -75 0 0 0 0 0 0 0 0 0 0 0 0 0 0 0 0 0 0 0 0 0 0 0 0 0 0 0 0 0 0 0 0 0
0 -23 -10 -60 -120 -49 -16 -34 -32 -60 -59 -38 -48 -53 -58 0 0 0 0 0 0 0 0 0 0 0 0 0 0 0 0 0 0 0 0 0 0 0 0 0 0 0 0 0
Wind_Speed
17 12 17 2 26 23 32 33 25 31 8 8 7 3 2 5 3 4 4 4 4 5 4 7 6 4 3 2 2 4 8 12 18 21 23 25 30 31 32 32 36 34 38 41
21 6 10 13 22 12 21 28 32 32 25 4 5 5 2 6 5 8 8 7 7 7 5 7 7 6 5 3 1 5 10 16 19 21 24 25 30 29 29 35 36 40 43 45
14 19 14 5 10 27 13 20 25 26 27 11 6 10 13 14 14 10 11 10 8 9 9 7 8 7 4 1 4 9 14 19 21 23 27 30 30 33 34 38 39 42 44 45
21 29 29 22 20 24 24 23 23 26 19 20 14 22 14 12 11 11 13 13 10 9 9 8 9 5 3 5 9 12 16 20 24 26 29 31 33 35 36 39 41 43 43 45
24 26 26 26 17 22 21 19 22 24 22 23 24 25 22 31 26 19 11 15 12 6 7 7 3 2 4 5 9 12 17 22 25 28 29 32 34 35 38 39 43 42 45 47
31 32 24 20 12 14 18 17 21 24 23 23 24 29 31 27 24 24 16 8 7 8 5 4 4 5 5 8 11 14 18 23 26 29 31 33 37 40 43 44 45 47 48 45
27 30 25 17 21 23 18 16 22 22 21 24 21 23 17 18 14 18 13 10 11 9 8 8 7 7 8 11 13 17 22 27 29 31 34 37 39 41 43 45 47 49 47 45
18 22 12 13 14 13 18 11 17 23 22 22 16 22 20 11 15 17 14 9 10 9 8 8 8 8 9 12 15 19 25 30 33 34 37 39 40 41 43 45 44 44 44 43
24 26 23 28 9 7 16 15 10 18 21 25 23 23 16 17 17 17 15 10 9 8 8 7 8 10 12 16 20 23 28 32 34 36 38 40 42 43 43 42 41 40 40 41
16 26 23 24 2 6 13 13 19 19 23 24 22 25 22 21 20 20 15 10 6 4 8 10 11 13 16 19 22 26 30 33 35 38 39 40 41 39 39 39 39 39 39 36
15 17 20 20 14 11 15 17 19 19 17 24 25 22 16 20 22 23 31 14 3 3 5 9 11 14 18 21 25 29 32 35 37 38 38 38 38 37 38 38 38 38 37 38
14 15 17 15 19 16 15 17 18 20 22 24 25 22 20 24 22 17 17 12 8 7 9 10 13 16 21 23 26 30 33 35 36 36 36 35 35 36 37 38 38 37 38 36
13 16 20 22 24 17 17 17 19 18 22 22 25 17 27 29 28 29 15 5 4 7 10 12 17 20 23 25 29 31 33 34 35 34 34 34 34 35 36 35 36 35 35 36
15 17 18 20 21 21 18 22 17 21 25 31 25 34 32 26 31 29 26 3 4 8 10 14 19 22 24 26 28 31 32 33 32 32 32 33 33 33 32 31 32 35 35 34
20 24 25 29 30 30 29 17 15 16 15 20 27 27 31 28 31 23 18 19 7 9 11 16 19 23 25 27 29 30 31 31 30 31 31 33 32 31 30 29 28 31 32 32
16 21 25 32 33 33 37 34 28 11 20 18 16 31 21 18 24 25 23 18 6 8 13 17 20 22 25 27 28 29 30 29 28 30 31 30 31 31 31 30 30 32 25 24
16 16 20 25 26 31 33 25 25 21 12 14 25 19 23 26 24 14 12 9 2 10 12 16 20 22 24 25 26 27 26 26 28 30 31 30 30 31 32 33 34 34 33 13
20 20 22 25 26 28 23 23 28 29 22 15 20 25 22 20 21 11 5 1 9 10 13 16 18 20 22 22 24 25 24 26 29 33 31 32 30 31 31 34 31 33 28 23
21 22 26 27 27 32 32 22 20 22 22 20 18 18 14 13 14 11 5 5 7 10 13 15 17 18 19 20 22 25 27 29 31 31 30 30 28 31 32 34 35 31 23 24
24 21 22 22 24 26 18 18 19 19 23 24 22 21 12 14 23 17 6 4 7 10 13 15 16 17 18 20 23 27 29 30 31 30 28 27 25 28 31 33 32 23 24 21
21 21 21 23 26 25 21 19 16 23 22 23 20 16 8 16 17 11 6 4 8 11 12 13 16 17 20 23 24 27 29 29 28 28 25 26 28 24 27 30 27 25 23 22
21 24 26 23 26 29 21 18 21 18 21 22 22 15 13 12 8 4 2 5 9 10 11 13 15 18 21 23 25 27 29 27 27 28 28 29 29 26 25 28 26 28 30 31
24 21 20 21 22 16 17 13 14 14 17 20 19 14 11 10 9 9 5 5 9 10 11 13 15 17 20 22 25 27 27 27 27 27 28 29 22 28 25 27 28 31 32 33
21 19 22 19 18 17 15 14 13 13 16 15 14 12 11 10 8 10 5 6 9 10 11 13 15 17 19 22 24 26 27 26 27 27 28 29 16 27 26 26 26 28 29 25
21 20 22 17 14 12 16 12 12 12 12 12 11 10 9 10 9 7 3 7 8 10 11 12 15 16 19 22 23 25 25 27 27 25 26 30 18 24 26 24 16 14 15 27
20 23 25 27 22 20 14 14 11 10 10 8 8 7 7 8 9 8 6 7 7 9 11 13 15 17 19 22 23 24 23 26 28 25 25 29 23 23 21 17 4 17 19 22
Wind_Direction
290 314 294 315 210 205 240 274 299 296 314 221 243 277 247 295 241 224 223 218 210 204 182 170 167 160 139 115 52 0 355 354 344 342 344 341 337 339 339 342 341 343 339 337
284 258 161 175 204 193 230 291 287 293 316 220 241 264 294 325 252 228 227 222 214 209 204 190 187 185 192 199 297 2 2 353 348 345 343 344 340 341 343 339 339 337 335 333
289 290 303 212 299 296 300 310 305 303 297 340 327 308 317 320 311 239 230 222 217 209 206 209 200 198 208 236 14 9 355 352 353 349 343 340 340 339 338 337 336 336 334 334
291 277 281 296 302 300 302 301 311 306 302 313 323 304 310 321 313 295 253 228 222 212 210 219 207 230 338 22 20 7 356 350 349 348 345 343 340 337 338 336 336 335 336 335
286 284 293 294 304 304 303 313 314 315 310 307 304 314 319 316 322 314 293 223 214 222 211 217 223 114 73 41 9 6 0 354 350 349 348 345 342 341 339 338 336 337 335 333
276 275 298 314 317 314 307 316 314 310 313 306 310 307 311 315 323 328 321 201 205 282 338 53 101 85 58 24 24 10 0 354 352 350 348 345 341 338 337 337 336 335 334 335
286 280 293 310 303 301 304 316 314 314 303 305 319 319 317 331 344 1 24 41 46 56 65 76 83 67 45 29 14 2 357 352 353 349 346 344 342 341 339 338 336 335 336 336
293 298 292 309 287 304 309 301 312 310 313 315 331 328 336 0 348 333 348 3 4 46 51 59 51 37 29 17 6 358 353 348 347 346 344 344 343 342 340 339 340 340 339 339
295 291 303 315 286 288 303 303 306 309 308 307 314 318 325 329 332 334 332 357 16 45 56 46 29 22 12 4 360 355 350 348 348 346 344 343 342 342 343 344 344 344 345 343
290 290 300 309 298 305 315 310 311 310 307 305 312 312 318 324 327 329 332 344 16 36 53 49 32 24 12 7 2 357 354 350 348 346 346 345 346 348 349 349 349 350 350 352
264 285 293 303 315 304 315 316 300 307 311 309 309 312 327 325 320 314 315 309 32 70 23 37 25 16 9 1 356 353 350 348 346 346 347 349 351 353 353 354 353 356 358 355
316 293 287 283 299 322 333 331 328 305 305 307 312 313 337 326 322 324 311 48 41 59 56 26 16 7 358 356 355 351 350 349 349 350 352 355 356 357 358 358 358 358 359 3
306 308 292 295 293 310 309 317 323 325 320 308 304 301 328 327 316 305 302 308 62 39 40 8 359 357 355 357 353 351 351 352 353 356 358 358 358 359 360 3 4 4 7 11
297 292 302 294 295 306 308 305 316 313 308 302 299 297 307 311 307 307 304 7 50 18 10 351 3 1 1 358 355 354 354 356 358 1 1 360 359 360 2 4 4 5 7 16
293 285 284 284 286 288 297 320 315 314 314 303 304 301 295 309 301 308 296 299 325 345 351 350 2 1 358 356 355 356 357 0 4 4 4 3 3 3 4 7 11 10 14 19
294 292 288 283 285 289 285 294 308 312 319 315 323 309 313 306 313 296 292 279 297 342 344 346 359 3 358 357 359 0 2 6 10 8 7 8 7 8 7 6 6 5 22 28
294 301 298 295 296 292 289 302 308 322 324 318 315 319 321 307 314 302 247 225 331 337 351 351 358 359 359 3 6 7 12 14 13 11 10 10 11 12 6 3 2 356 342 42
294 296 296 297 306 296 308 306 304 309 319 333 333 336 338 323 320 345 85 126 315 347 350 360 2 1 7 13 15 17 20 18 15 12 13 12 15 12 8 358 12 340 322 310
290 291 292 294 296 294 300 316 323 323 324 337 337 336 346 344 335 313 288 349 340 11 19 13 9 14 20 23 22 21 20 17 16 16 16 19 20 12 1 349 344 338 317 319
278 281 283 292 295 298 310 320 325 331 320 337 340 337 340 325 305 286 277 356 25 30 18 16 24 25 27 24 23 20 17 18 22 23 24 24 23 17 358 3 344 324 325 320
282 278 271 279 286 294 309 320 327 314 322 337 350 357 2 317 335 315 293 5 18 20 23 28 26 27 19 20 23 21 21 23 25 24 29 25 20 27 13 359 342 336 331 327
284 284 278 277 284 288 314 312 307 321 331 339 340 360 1 347 348 322 299 27 40 30 34 25 29 26 23 21 24 23 23 28 28 27 30 27 26 33 24 2 347 349 353 357
279 280 276 286 289 308 322 329 333 342 341 344 348 12 29 31 19 8 330 46 44 37 34 31 37 31 28 28 26 25 26 30 31 30 31 31 50 355 23 2 10 7 10 11
281 288 295 281 292 306 309 323 336 348 352 3 11 30 39 34 29 16 294 29 18 14 27 42 33 28 28 27 27 30 31 33 34 35 34 29 309 7 34 27 29 18 6 349
292 289 278 289 305 309 319 319 328 348 10 16 27 42 46 56 40 58 7 37 42 38 37 36 31 31 31 26 28 30 35 35 36 39 36 4 313 338 25 38 73 89 86 21
286 290 285 274 285 295 308 322 333 339 351 15 29 48 39 56 42 75 57 59 31 30 27 28 28 25 29 25 25 32 39 40 39 39 39 11 329 332 327 314 244 67 62 54